Home > Weather > Tartu > Past weeks

Flag for Estonia Weather for the Past 2 Weeks in Tartu, Estonia

Now
36 °F

Mostly cloudy.


Feels Like: 29 °F
Forecast: 32 / 36 °F
Wind: 8 mph from South

Location: Tartu/Ulenurme

Current Time: Feb 12, 2016 at 8:37:09 PM

Latest Report: Feb 12, 2016 at 7:50 PM


Visibility: N/A

Pressure: 29.53 "Hg

Humidity: 87%

Dew point: 32 °F

Location of TartuLocation

Historic Weather in Tartu — Graph

°F

Tartu Temperature Yesterday

Maximum temperature yesterday: 39 °F (at 12:50 AM)
Minimum temperature yesterday: 34 °F (at 8:50 PM)
Average temperature yesterday: 38 °F

High & Low Weather Summary for the Past Weeks

 TemperatureHumidityPressure
High43 °F (Jan 30, 12:50 PM)93% (Jan 30, 2:50 AM)30.04 "Hg (Jan 30, 2:50 AM)
Low23 °F (Feb 6, 7:50 AM)69% (Feb 6, 2:50 PM)28.94 "Hg (Feb 2, 8:50 AM)
Average36 °F85%29.44 "Hg
* Reported Jan 28 6:50 PM — Feb 12 6:50 PM, Tartu, Weather by CustomWeather, © 2016

Note: Actual official high and low records may vary slightly from our data, if they occured in-between our weather recording intervals... More about our weather records

Advertising

Tartu Weather History for the Previous 24 Hours

 ConditionsComfort  
Time TempWeatherWind HumidityBarometerVisibility
6:50 PM
Fri, Feb 12
36 °FLight rain. Mostly cloudy.9 mph87%29.53 "HgN/A
5:50 PM36 °FLow clouds.8 mph81%29.53 "HgN/A
4:50 PM34 °FBroken clouds.8 mph87%29.50 "HgN/A
3:50 PM34 °FBroken clouds.9 mph87%29.47 "HgN/A
2:50 PM34 °FScattered showers. Broken clouds.9 mph87%29.45 "HgN/A
1:50 PM34 °FScattered showers. Mostly cloudy.13 mph87%29.42 "HgN/A
12:50 PM34 °FLow clouds.9 mph87%29.39 "HgN/A
11:50 AM34 °FMostly cloudy.9 mph87%29.39 "HgN/A
10:50 AM34 °FLight rain. Fog.7 mph87%29.36 "Hg2 mi
9:50 AM34 °FLight rain. Mostly cloudy.6 mph87%29.33 "Hg2 mi
8:50 AM32 °FLight snow. Ice fog.9 mph93%29.30 "Hg2 mi
7:50 AM32 °FLight snow. Low clouds.8 mph93%29.30 "Hg2 mi
6:50 AM32 °FLight snow. Low clouds.9 mph93%29.30 "Hg1 mi
5:50 AM32 °FLight snow. Mostly cloudy.9 mph93%29.30 "Hg2 mi
4:50 AM34 °FLight snow. Mostly cloudy.12 mph87%29.33 "HgN/A
3:50 AM34 °FLight snow. Low clouds.12 mph87%29.33 "HgN/A
2:50 AM34 °FLight rain. Mostly cloudy.14 mph87%29.33 "Hg3 mi
1:50 AM34 °FLight snow. Low clouds.13 mph87%29.36 "Hg2 mi
12:50 AM34 °FLight rain. Low clouds.13 mph87%29.36 "Hg2 mi
10:50 PM
Thu, Feb 11
34 °FSnow flurries. Mostly cloudy.10 mph87%29.39 "Hg5 mi
9:50 PM34 °FLight snow. Low clouds.10 mph87%29.39 "HgN/A
8:50 PM34 °FLight rain. Mostly cloudy.12 mph87%29.42 "HgN/A
Weather by CustomWeather, © 2016

See weather overviewHow to use our weather pages